[[{"header":{"parameterUnit":"m.s-1","parameterCategory":2,"la1":30.2992,"la2":30.254,"lo1":-89.0895,"lo2":-89.0443,"dy":0.0025,"dx":0.0025,"nx":19,"ny":19,"refTime":"2026-05-16T09:00:00:Z","depth":"0","parameterNumber":2,"parameterNumberName":"U-component_of_CURRENTS"},"data":[0,0,0,0.1877,0.1877,0.1912,0.1913,0.2045,0.2046,0,0,0,0,0,0,0,0,0,0,0,0.1865,0.1866,0.1877,0.1877,0.1912,0.1913,0.2045,0.2046,0,0,0,0,0,0,0,0,0,0,0,0.1865,0.1866,0.1866,0.1878,0.1912,0.1913,0.2044,0.1997,0,0,0,0,0,0,0,0,0,0,0.1953,0.1927,0.1866,0.1866,0.1878,0.1912,0.1913,0.1994,0.2,0.2052,0,0.2053,0,0.2053,0.2057,0.2057,0,0,0,0.1883,0.1921,0.1932,0.1866,0.1878,0.1912,0.1898,0.1997,0.2004,0.2061,0.2055,0.2059,0.2056,0.2058,0.2058,0.2199,0.2199,0,0,0.1881,0.1876,0.1926,0.1936,0.1884,0.1897,0.1899,0.2,0.2009,0.2055,0.2062,0.2058,0.2059,0.206,0.2198,0.2199,0,0,0,0.1872,0.1875,0.188,0.1931,0.1931,0.1898,0.19,0.2004,0.2006,0.2063,0.2059,0.2059,0.2061,0.2198,0.2198,0.2215,0,0,0,0.1871,0.1869,0.1879,0.1878,0.1928,0.1956,0.1902,0.1999,0.201,0.2059,0.2059,0.2063,0.2197,0.2198,0.2214,0.221,0,0,0,0.1864,0.1868,0.1871,0.1877,0.189,0.1953,0.1961,0.2,0.2008,0.2057,0.2063,0.2197,0.2198,0.2213,0.2209,0.2279,0,0,0,0.1861,0.186,0.1871,0.188,0.1889,0.1928,0.196,0.1999,0.2038,0.206,0.2198,0.2198,0.2212,0.2208,0.2277,0.214,0.2138,0,0,0.1855,0.1859,0.1867,0.1877,0.1898,0.1924,0.1976,0.2037,0.2073,0.2171,0.2173,0.2214,0.2209,0.2279,0.2192,0.2188,0,0,0,0.1863,0.1859,0.1873,0.1887,0.1924,0.1971,0.2021,0.2066,0.2152,0.21,0.2228,0.2224,0.2268,0.2181,0.2179,0.1893,0.2203,0.2202,0.2202,0.1828,0.1851,0.1861,0.1895,0.1934,0.201,0.2068,0.2142,0.2174,0.2218,0.2248,0.2324,0.223,0.2227,0.1934,0.2266,0.2266,0.2266,0.2266,0.1802,0.1805,0.1849,0.1864,0.1935,0.199,0.2125,0.217,0.2297,0.2286,0.2329,0.2214,0.2225,0.1914,0.2268,0.2268,0.2267,0.2267,0.2267,0.1766,0.1771,0.1785,0.1823,0.1893,0.1989,0.211,0.2214,0.2302,0.2354,0.23,0.2298,0.2018,0.2396,0.2396,0.2397,0.2397,0.2397,0.2397,0.1721,0.1736,0.1745,0.1794,0.1841,0.1948,0.2122,0.2221,0.23,0.2306,0.2306,0.1988,0.2364,0.2352,0.2402,0.2401,0.2401,0.24,0.24,0.1677,0.1687,0.1698,0.1734,0.1852,0.1925,0.2088,0.2183,0.2284,0.2286,0.189,0.2294,0.2283,0.2283,0.2269,0.2296,0.2296,0.2296,0.2296,0.1647,0.1653,0.1671,0.1731,0.1837,0.193,0.1955,0.1979,0.1848,0.1667,0.1687,0.1559,0.1576,0.1517,0.1534,0.1502,0.1334,0.1333,0.1331,0.1624,0.1632,0.1644,0.1703,0.1831,0.1904,0.1826,0.1598,0.131,0.1267,0.1317,0.1358,0.1148,0.1198,0.109,0.1136,0.1082,0,0]},{"header":{"parameterUnit":"m.s-1","parameterCategory":2,"la1":30.2992,"la2":30.254,"lo1":-89.0895,"lo2":-89.0443,"dy":0.0025,"dx":0.0025,"nx":19,"ny":19,"refTime":"2026-05-16T09:00:00:Z","depth":"0","parameterNumber":3,"parameterNumberName":"V-component_of_CURRENTS"},"data":[0,0,0,0.0364,0.0365,0.0426,0.0426,0.0512,0.0512,0,0,0,0,0,0,0,0,0,0,0,0.0342,0.0342,0.0364,0.0365,0.0426,0.0427,0.0511,0.0512,0,0,0,0,0,0,0,0,0,0,0,0.0342,0.0342,0.0343,0.0365,0.0426,0.0427,0.0511,0.0464,0,0,0,0,0,0,0,0,0,0,0.0404,0.0381,0.0342,0.0343,0.0366,0.0426,0.0427,0.0462,0.0467,0.0485,0,0.0493,0,0.0504,0.0518,0.0518,0,0,0,0.0368,0.0376,0.0394,0.0343,0.0366,0.0426,0.0399,0.0465,0.0471,0.0492,0.0495,0.0498,0.0506,0.0518,0.0519,0.0617,0.0617,0,0,0.0365,0.0354,0.039,0.0398,0.0381,0.0397,0.0401,0.0468,0.0474,0.0495,0.05,0.0507,0.0519,0.052,0.0617,0.0617,0,0,0,0.0353,0.0351,0.0367,0.0394,0.0405,0.0399,0.0404,0.0471,0.0476,0.0501,0.0508,0.0519,0.052,0.0616,0.0617,0.065,0,0,0,0.0351,0.0344,0.0366,0.036,0.0403,0.0437,0.0404,0.0472,0.048,0.0508,0.052,0.0521,0.0616,0.0616,0.0648,0.0666,0,0,0,0.0339,0.0343,0.035,0.0359,0.0384,0.0436,0.0446,0.0474,0.0484,0.0518,0.0522,0.0615,0.0616,0.0646,0.0663,0.0779,0,0,0,0.0326,0.0348,0.035,0.0383,0.0384,0.0446,0.0446,0.0493,0.0524,0.052,0.0616,0.0617,0.0646,0.0662,0.0775,0.0842,0.0863,0,0,0.0349,0.035,0.0373,0.0376,0.0435,0.0437,0.0501,0.0536,0.0546,0.0593,0.0596,0.0649,0.0663,0.0778,0.0904,0.0924,0,0,0,0.0378,0.0393,0.0412,0.0445,0.0483,0.0521,0.0551,0.0569,0.0619,0.0569,0.0661,0.067,0.0742,0.0775,0.079,0.0758,0.0622,0.0622,0.0621,0.039,0.0417,0.0462,0.0501,0.0537,0.0585,0.0627,0.0658,0.0655,0.0683,0.0706,0.0826,0.0859,0.0873,0.0837,0.0715,0.0715,0.0715,0.0715,0.0433,0.0464,0.0497,0.0547,0.0587,0.0635,0.0699,0.0711,0.0807,0.0754,0.0823,0.0817,0.0892,0.0848,0.0717,0.0717,0.0717,0.0716,0.0716,0.0445,0.0464,0.0494,0.0562,0.0619,0.0665,0.0763,0.0793,0.085,0.0906,0.1002,0.1002,0.0961,0.0965,0.0966,0.0966,0.0967,0.0967,0.0967,0.0443,0.0477,0.0517,0.058,0.0621,0.0693,0.081,0.0907,0.1036,0.1061,0.1062,0.1004,0.0904,0.0892,0.0977,0.0975,0.0974,0.0973,0.0972,0.0465,0.0471,0.0532,0.0573,0.0676,0.0798,0.0897,0.1137,0.124,0.1337,0.1216,0.1168,0.1181,0.1167,0.1163,0.1313,0.1313,0.1313,0.1313,0.0467,0.0478,0.0548,0.0611,0.0711,0.0842,0.1126,0.1322,0.1404,0.1393,0.1336,0.1259,0.1247,0.1258,0.1243,0.1237,0.1403,0.1402,0.1402,0.048,0.05,0.0542,0.0608,0.0722,0.0924,0.1229,0.144,0.1452,0.1398,0.1282,0.1278,0.115,0.1133,0.1131,0.1112,0.1095,0,0]}],[{"header":{"parameterUnit":"m.s-1","parameterCategory":2,"la1":30.2992,"la2":30.254,"lo1":-89.0895,"lo2":-89.0443,"dy":0.0025,"dx":0.0025,"nx":19,"ny":19,"refTime":"2026-05-16T09:00:00:Z","depth":"2","parameterNumber":2,"parameterNumberName":"U-component_of_CURRENTS"},"data":[0,0,0,0.1595,0.1595,0.1626,0.1626,0.1701,0.1701,0,0,0,0,0,0,0,0,0,0,0,0.1591,0.1591,0.1595,0.1595,0.1626,0.1626,0.17,0.1701,0,0,0,0,0,0,0,0,0,0,0,0.1591,0.1591,0.1591,0.1596,0.1625,0.1626,0.17,0.1672,0,0,0,0,0,0,0,0,0,0,0.1639,0.1626,0.1591,0.1591,0.1596,0.1625,0.1626,0.167,0.1673,0.1693,0,0.1694,0,0.1692,0.1706,0.1706,0,0,0,0.1608,0.1623,0.1627,0.1591,0.1596,0.1625,0.1616,0.1672,0.1676,0.1698,0.1695,0.1697,0.1693,0.1706,0.1707,0.1795,0.1796,0,0,0.1606,0.1603,0.1625,0.163,0.1599,0.1614,0.1616,0.1674,0.1679,0.1695,0.1699,0.1694,0.1707,0.1707,0.1795,0.1795,0,0,0,0.1593,0.1601,0.1605,0.1627,0.1625,0.1615,0.1617,0.1676,0.1676,0.1699,0.1695,0.1707,0.1708,0.1794,0.1795,0.1809,0,0,0,0.1593,0.1593,0.1604,0.1603,0.1624,0.1646,0.1619,0.1673,0.1679,0.1695,0.1707,0.1709,0.1794,0.1795,0.1808,0.1823,0,0,0,0.1591,0.1592,0.1594,0.1602,0.1608,0.1644,0.1648,0.1674,0.1676,0.1706,0.1709,0.1794,0.1795,0.1806,0.1821,0.1887,0,0,0,0.159,0.1588,0.1594,0.1597,0.1608,0.1632,0.1648,0.1677,0.1703,0.1708,0.1794,0.1795,0.1806,0.182,0.1885,0.1712,0.1708,0,0,0.1586,0.1588,0.1591,0.1596,0.1608,0.1629,0.1669,0.171,0.1728,0.1779,0.178,0.1808,0.1821,0.1887,0.1773,0.1768,0,0,0,0.1589,0.1588,0.1598,0.1602,0.1622,0.1658,0.1695,0.1731,0.179,0.1746,0.1826,0.1834,0.1875,0.1766,0.1762,0.18,0.18,0.18,0.18,0.158,0.1584,0.159,0.1606,0.1631,0.1684,0.1736,0.1791,0.1806,0.1844,0.1858,0.1935,0.1818,0.1813,0.1868,0.1868,0.1868,0.1868,0.1868,0.156,0.1556,0.1579,0.159,0.1634,0.1679,0.1777,0.1814,0.1926,0.1903,0.1942,0.1801,0.1809,0.187,0.1869,0.1869,0.1869,0.1869,0.1869,0.1541,0.1537,0.1548,0.1569,0.1618,0.1692,0.1785,0.1842,0.194,0.1986,0.1899,0.1895,0.1956,0.2017,0.2017,0.2017,0.2018,0.2018,0.2018,0.1508,0.1513,0.1524,0.156,0.1601,0.168,0.1792,0.1877,0.1912,0.1916,0.1915,0.1987,0.1982,0.1967,0.2024,0.2023,0.2022,0.2022,0.2021,0.1466,0.1486,0.1491,0.1523,0.1612,0.1623,0.1748,0.1774,0.1875,0.1857,0.1882,0.1884,0.1873,0.1873,0.1856,0.1882,0.1882,0.1882,0.1882,0.1449,0.1455,0.1465,0.1498,0.157,0.1594,0.1536,0.1489,0.1559,0.1542,0.1557,0.1445,0.1457,0.1419,0.1429,0.1401,0.1309,0.1308,0.1307,0.1427,0.1431,0.1438,0.1469,0.1528,0.154,0.1322,0.1052,0.1063,0.1285,0.1461,0.1843,0.1712,0.1719,0.1687,0.1693,0.166,0,0]},{"header":{"parameterUnit":"m.s-1","parameterCategory":2,"la1":30.2992,"la2":30.254,"lo1":-89.0895,"lo2":-89.0443,"dy":0.0025,"dx":0.0025,"nx":19,"ny":19,"refTime":"2026-05-16T09:00:00:Z","depth":"2","parameterNumber":3,"parameterNumberName":"V-component_of_CURRENTS"},"data":[0,0,0,0.0144,0.0145,0.0191,0.0191,0.0237,0.0238,0,0,0,0,0,0,0,0,0,0,0,0.013,0.013,0.0144,0.0145,0.0191,0.0191,0.0237,0.0238,0,0,0,0,0,0,0,0,0,0,0,0.013,0.013,0.0131,0.0145,0.0191,0.0191,0.0237,0.0206,0,0,0,0,0,0,0,0,0,0,0.0163,0.0148,0.013,0.0131,0.0145,0.0191,0.0191,0.0205,0.0208,0.0212,0,0.0222,0,0.0229,0.024,0.0241,0,0,0,0.0147,0.0145,0.0161,0.0131,0.0146,0.0191,0.0171,0.0207,0.021,0.0217,0.0222,0.0224,0.023,0.0241,0.0241,0.0307,0.0308,0,0,0.0144,0.0135,0.0158,0.0163,0.016,0.0169,0.0172,0.0209,0.0212,0.0223,0.0225,0.0231,0.0241,0.0241,0.0307,0.0308,0,0,0,0.0136,0.0133,0.0148,0.0161,0.017,0.017,0.0174,0.021,0.0216,0.0226,0.0231,0.0241,0.0242,0.0307,0.0307,0.0337,0,0,0,0.0134,0.0128,0.0147,0.0142,0.0169,0.0191,0.0174,0.0214,0.0218,0.0231,0.0241,0.0242,0.0306,0.0307,0.0336,0.0362,0,0,0,0.0127,0.0128,0.0134,0.0141,0.0161,0.0191,0.0199,0.0215,0.0221,0.0241,0.0242,0.0306,0.0307,0.0334,0.0359,0.0471,0,0,0,0.0114,0.0133,0.0134,0.0161,0.016,0.0207,0.0199,0.0233,0.0253,0.0241,0.0306,0.0307,0.0333,0.0357,0.0467,0.0532,0.0553,0,0,0.0133,0.0135,0.0153,0.0156,0.0205,0.02,0.0251,0.027,0.0269,0.0292,0.0294,0.0336,0.0358,0.047,0.0591,0.0611,0,0,0,0.0156,0.0172,0.0188,0.0215,0.0241,0.0272,0.0287,0.0298,0.0328,0.0285,0.0349,0.0362,0.0432,0.0464,0.0479,0.0312,0.0312,0.0312,0.0312,0.0178,0.0196,0.0236,0.0266,0.0293,0.0325,0.0354,0.0371,0.036,0.0381,0.0396,0.0512,0.0544,0.0557,0.0399,0.0399,0.0399,0.0399,0.0399,0.0219,0.0245,0.0271,0.0315,0.0344,0.0384,0.042,0.0423,0.0499,0.0443,0.051,0.0503,0.0576,0.0402,0.0401,0.0401,0.0401,0.04,0.04,0.0239,0.0252,0.0279,0.0338,0.0385,0.042,0.0493,0.0494,0.0546,0.0592,0.0687,0.0687,0.0562,0.065,0.0651,0.0651,0.0652,0.0652,0.0653,0.0241,0.0268,0.0308,0.0364,0.0402,0.045,0.0533,0.0618,0.0732,0.075,0.0751,0.0598,0.059,0.0579,0.0662,0.066,0.0659,0.0658,0.0658,0.0262,0.0273,0.0329,0.0367,0.0444,0.0544,0.0617,0.0847,0.0932,0.1037,0.0861,0.0853,0.0868,0.0855,0.0851,0.1001,0.1001,0.1001,0.1001,0.0271,0.0282,0.0349,0.04,0.047,0.0574,0.083,0.0972,0.1055,0.1013,0.1012,0.093,0.0917,0.0929,0.0914,0.0909,0.1073,0.1073,0.1073,0.0288,0.0304,0.035,0.0403,0.0481,0.0647,0.0928,0.1035,0.1008,0.1068,0.0946,0.1021,0.0894,0.0876,0.0884,0.0864,0.0851,0,0]}],[{"header":{"parameterUnit":"m.s-1","parameterCategory":2,"la1":30.2992,"la2":30.254,"lo1":-89.0895,"lo2":-89.0443,"dy":0.0025,"dx":0.0025,"nx":19,"ny":19,"refTime":"2026-05-16T09:00:00:Z","depth":"4","parameterNumber":2,"parameterNumberName":"U-component_of_CURRENTS"},"data":[0,0,0,0.0758,0.076,0.0813,0.0813,0.0836,0.0836,0,0,0,0,0,0,0,0,0,0,0,0.0745,0.0746,0.0758,0.076,0.0813,0.0813,0.0836,0.0836,0,0,0,0,0,0,0,0,0,0,0,0.0745,0.0746,0.0747,0.076,0.0813,0.0814,0.0836,0.0806,0,0,0,0,0,0,0,0,0,0,0.0759,0.0764,0.0746,0.0747,0.076,0.0813,0.0814,0.0805,0.0808,0.08,0,0.082,0,0.0828,0.0837,0.0837,0,0,0,0.0755,0.0761,0.0768,0.0747,0.0761,0.0813,0.0788,0.0807,0.081,0.0804,0.082,0.0821,0.0828,0.0837,0.0837,0.0861,0.0861,0,0,0.0752,0.0759,0.0766,0.077,0.0789,0.0786,0.079,0.0809,0.0822,0.082,0.0822,0.0828,0.0837,0.0838,0.0861,0.0861,0,0,0,0.0747,0.0757,0.0764,0.0769,0.0782,0.0788,0.0792,0.0821,0.0822,0.0822,0.0829,0.0838,0.0838,0.0861,0.0861,0.0878,0,0,0,0.0745,0.0754,0.0763,0.0768,0.0783,0.0811,0.0803,0.0821,0.0823,0.0829,0.0838,0.0838,0.0861,0.0861,0.0877,0.0851,0,0,0,0.074,0.0754,0.0762,0.0768,0.0792,0.0811,0.0813,0.0822,0.0827,0.0837,0.0838,0.0861,0.0861,0.0876,0.085,0.0879,0,0,0,0.074,0.0749,0.0763,0.0773,0.0792,0.0797,0.0813,0.0835,0.0846,0.0838,0.0861,0.0861,0.0876,0.085,0.0879,0.0726,0,0,0,0.0742,0.075,0.0751,0.0764,0.0762,0.0788,0.079,0.0823,0.0847,0.085,0.0851,0.0877,0.085,0.0879,0.075,0,0,0,0,0.0744,0.0744,0.0745,0.0756,0.0765,0.0772,0.0805,0.0821,0.0864,0.0857,0.088,0.0862,0.088,0.079,0.0863,0.0863,0.0863,0.0863,0.0863,0.0748,0.0744,0.0737,0.0734,0.0742,0.0769,0.0785,0.0816,0.0847,0.088,0.088,0.0911,0.0817,0.0901,0.0901,0.0901,0.0901,0.0902,0.0902,0.0724,0.0708,0.0717,0.0711,0.0725,0.0738,0.077,0.0811,0.0863,0.0879,0.0898,0.0816,0.0903,0.0903,0.0903,0.0902,0.0902,0.0902,0.0902,0.0706,0.0693,0.0707,0.0696,0.0694,0.0714,0.0721,0.0786,0.0865,0.0892,0.083,0.0919,0.0914,0.0934,0.0934,0.0934,0.0934,0.0934,0.0934,0.0678,0.0682,0.0665,0.0657,0.0626,0.0632,0.0694,0.0719,0.0807,0.0805,0.091,0.0922,0.0921,0.0916,0.0935,0.0934,0.0934,0.0934,0.0934,0.0632,0.0654,0.0604,0.057,0.0464,0.0424,0.0541,0.0619,0.0649,0.0667,0.0765,0.0774,0.0751,0.0754,0.0742,0.071,0.0708,0.0706,0,0.0609,0.0611,0.0524,0.0397,0.0256,0.026,0.0273,0.0358,0.049,0.048,0.0586,0.0688,0.0697,0.066,0.0661,0.0639,0,0,0,0.0579,0.0556,0.0464,0.0332,0.011,0.0123,0.0256,0.028,0.052,0.0512,0.0658,0.067,0.0741,0.0936,0.092,0.0919,0.0909,0,0]},{"header":{"parameterUnit":"m.s-1","parameterCategory":2,"la1":30.2992,"la2":30.254,"lo1":-89.0895,"lo2":-89.0443,"dy":0.0025,"dx":0.0025,"nx":19,"ny":19,"refTime":"2026-05-16T09:00:00:Z","depth":"4","parameterNumber":3,"parameterNumberName":"V-component_of_CURRENTS"},"data":[0,0,0,0.0047,0.0047,0.008,0.008,0.011,0.0111,0,0,0,0,0,0,0,0,0,0,0,0.0036,0.0036,0.0047,0.0047,0.008,0.008,0.011,0.0111,0,0,0,0,0,0,0,0,0,0,0,0.0036,0.0036,0.0036,0.0048,0.008,0.008,0.011,0.0089,0,0,0,0,0,0,0,0,0,0,0.0059,0.005,0.0036,0.0036,0.0048,0.008,0.008,0.0088,0.009,0.0092,0,0.0098,0,0.0104,0.0112,0.0112,0,0,0,0.0049,0.0048,0.0057,0.0036,0.0048,0.0079,0.0065,0.0089,0.0092,0.0095,0.0098,0.01,0.0105,0.0112,0.0112,0.0175,0.0176,0,0,0.0047,0.0042,0.0055,0.0058,0.0057,0.0064,0.0066,0.0091,0.0093,0.0099,0.01,0.0105,0.0113,0.0113,0.0175,0.0175,0,0,0,0.0041,0.004,0.0049,0.0057,0.0063,0.0065,0.0068,0.0092,0.0095,0.0101,0.0106,0.0113,0.0113,0.0174,0.0175,0.0219,0,0,0,0.004,0.0037,0.0048,0.0045,0.0063,0.008,0.0068,0.0094,0.0097,0.0105,0.0113,0.0113,0.0174,0.0175,0.0217,0.0248,0,0,0,0.0034,0.0036,0.004,0.0045,0.0058,0.0079,0.0084,0.0095,0.0099,0.0112,0.0113,0.0173,0.0175,0.0215,0.0244,0.0291,0,0,0,0.0027,0.0039,0.004,0.0058,0.0058,0.0097,0.0084,0.0109,0.0123,0.0113,0.0174,0.0175,0.0214,0.0242,0.0288,0.0249,0,0,0,0.0039,0.004,0.0052,0.0054,0.0094,0.0092,0.0141,0.0148,0.0142,0.0164,0.0165,0.0218,0.0244,0.029,0.0319,0,0,0,0,0.0055,0.0064,0.0076,0.0099,0.0123,0.0163,0.0168,0.018,0.0209,0.0156,0.023,0.0245,0.0273,0.0242,0.0181,0.0181,0.0181,0.018,0.018,0.0065,0.0082,0.0114,0.0143,0.0172,0.0214,0.0247,0.0267,0.0245,0.027,0.0289,0.0368,0.0337,0.0292,0.0292,0.0293,0.0293,0.0293,0.0293,0.0091,0.0111,0.0146,0.0182,0.0229,0.0274,0.033,0.0332,0.0386,0.0349,0.0373,0.0301,0.0298,0.0297,0.0296,0.0296,0.0295,0.0295,0.0295,0.0096,0.011,0.0135,0.0197,0.0271,0.0324,0.0423,0.0442,0.0437,0.0467,0.0438,0.0411,0.0398,0.0478,0.0479,0.0479,0.0479,0.048,0.048,0.0089,0.0117,0.0154,0.0221,0.0286,0.0384,0.0486,0.0525,0.0524,0.0502,0.0487,0.0431,0.0425,0.041,0.0485,0.0484,0.0484,0.0483,0.0483,0.0099,0.0106,0.0161,0.0221,0.0378,0.0456,0.0553,0.0589,0.0629,0.06,0.0521,0.0517,0.0503,0.0495,0.0482,0.0582,0.0581,0.0581,0,0.0101,0.0108,0.019,0.0298,0.043,0.052,0.0597,0.0628,0.0588,0.0571,0.0607,0.0517,0.0514,0.0494,0.0488,0.0471,0,0,0,0.0116,0.0133,0.0201,0.0305,0.0465,0.0561,0.0621,0.0612,0.0598,0.0593,0.0577,0.0578,0.0525,0.0502,0.0472,0.0464,0.0439,0,0]}]]